| time (UTC) | temp F | wind direction | speed knots | gust knots | rain 1hr in | rain 24hr in | rain mn in | humidity % | barometer mb |
| 20260505000059 | 45 | 232 | 0.0 | 2.6 | 0.00 | 0.00 | 0.00 | 94 | 1009.0 |
| 20260504234558 | 46 | 200 | 0.0 | 1.7 | 0.00 | 0.00 | 0.00 | 93 | 1009.1 |
| 20260504233101 | 47 | 200 | 1.7 | 4.3 | 0.00 | 0.00 | 0.00 | 92 | 1009.1 |
| 20260504231554 | 46 | 264 | 1.7 | 7.0 | 0.00 | 0.00 | 0.00 | 94 | 1009.2 |
| 20260504230051 | 43 | 188 | 1.7 | 2.6 | 0.00 | 0.00 | 0.00 | 97 | 1009.2 |
| 20260504224550 | 43 | 183 | 0.0 | 0.0 | 0.00 | 0.00 | 0.00 | 96 | 1009.3 |
| 20260504223053 | 44 | 183 | 0.0 | 0.9 | 0.00 | 0.00 | 0.00 | 95 | 1009.4 |
| 20260504221548 | 45 | 183 | 1.7 | 4.3 | 0.00 | 0.00 | 0.00 | 95 | 1009.6 |
| 20260504214543 | 46 | 182 | 0.0 | 1.7 | 0.00 | 0.00 | 0.00 | 94 | 1009.4 |
| 20260504213045 | 47 | 184 | 0.9 | 3.5 | 0.00 | 0.00 | 0.00 | 94 | 1009.4 |
| 20260504211541 | 47 | 207 | 1.7 | 3.5 | 0.00 | 0.00 | 0.00 | 94 | 1009.3 |
| 20260504210040 | 48 | 229 | 0.0 | 2.6 | 0.00 | 0.00 | 0.00 | 93 | 1009.2 |
| 20260504204557 | 49 | 268 | 0.9 | 4.3 | 0.00 | 0.00 | 0.00 | 92 | 1009.2 |
| 20260504203041 | 49 | 274 | 0.9 | 3.5 | 0.00 | 0.00 | 0.00 | 92 | 1009.1 |
| 20260504201538 | 50 | 264 | 1.7 | 6.1 | 0.00 | 0.00 | 0.00 | 92 | 1008.9 |
| 20260504200043 | 50 | 279 | 4.3 | 8.7 | 0.00 | 0.00 | 0.00 | 91 | 1008.9 |
| 20260504194542 | 51 | 274 | 3.5 | 10.4 | 0.00 | 0.00 | 0.00 | 87 | 1008.8 |
| 20260504193038 | 51 | 224 | 7.0 | 13.0 | 0.00 | 0.00 | 0.00 | 87 | 1008.2 |
| 20260504191540 | 51 | 227 | 5.2 | 9.6 | 0.00 | 0.00 | 0.00 | 90 | 1008.2 |
| 20260504190039 | 50 | 219 | 3.5 | 7.0 | 0.00 | 0.00 | 0.00 | 90 | 1008.1 |
| 20260504184537 | 51 | 205 | 3.5 | 9.6 | 0.00 | 0.00 | 0.00 | 89 | 1007.9 |
| 20260504183036 | 50 | 223 | 4.3 | 7.8 | 0.00 | 0.00 | 0.00 | 92 | 1007.8 |
| 20260504181534 | 51 | 205 | 5.2 | 9.6 | 0.00 | 0.00 | 0.00 | 92 | 1007.6 |
| 20260504180034 | 53 | 224 | 6.1 | 12.2 | 0.00 | 0.00 | 0.00 | 89 | 1007.6 |
| 20260504174533 | 55 | 213 | 5.2 | 12.2 | 0.00 | 0.00 | 0.00 | 89 | 1007.4 |
| 20260504173033 | 55 | 215 | 6.1 | 12.2 | 0.00 | 0.00 | 0.00 | 88 | 1007.3 |
| 20260504171534 | 56 | 185 | 6.1 | 13.9 | 0.00 | 0.00 | 0.00 | 88 | 1007.3 |
| 20260504100104 | 49 | 237 | 4.3 | 7.8 | 0.00 | 0.00 | 0.00 | 86 | 1007.7 |
| 20260504081552 | 49 | 257 | 3.5 | 9.6 | 0.00 | 0.00 | 0.00 | 85 | 1006.8 |
| 20260504050021 | 48 | 125 | 0.0 | 2.6 | 0.00 | 0.00 | 0.00 | 89 | 1006.1 |
| 20260504044520 | 47 | 126 | 0.0 | 1.7 | 0.00 | 0.00 | 0.00 | 90 | 1006.2 |
| 20260504043031 | 47 | 126 | 0.9 | 2.6 | 0.00 | 0.00 | 0.00 | 90 | 1006.0 |
| 20260504041512 | 47 | 127 | 0.0 | 2.6 | 0.00 | 0.00 | 0.00 | 91 | 1006.8 |
| 20260504033002 | 47 | 126 | 0.9 | 1.7 | 0.00 | 0.00 | 0.00 | 95 | 1007.5 |
| 20260504031603 | 47 | 126 | 1.7 | 3.5 | 0.00 | 0.00 | 0.00 | 95 | 1007.3 |
| 20260504021556 | 46 | 142 | 0.9 | 3.5 | 0.00 | 0.00 | 0.00 | 93 | 1007.9 |
| 20260504020131 | 46 | 179 | 1.7 | 3.5 | 0.00 | 0.00 | 0.00 | 94 | 1008.6 |
| 20260504014603 | 46 | 98 | 0.9 | 5.2 | 0.00 | 0.00 | 0.00 | 94 | 1008.0 |
| 20260504013115 | 45 | 96 | 0.9 | 1.7 | 0.00 | 0.00 | 0.00 | 94 | 1008.4 |
| 20260504011552 | 45 | 97 | 0.9 | 8.7 | 0.00 | 0.00 | 0.00 | 94 | 1008.2 |
| 20260504010049 | 45 | 65 | 2.6 | 5.2 | 0.00 | 0.00 | 0.00 | 95 | 1008.4 |
| 20260504004616 | 45 | 70 | 1.7 | 5.2 | 0.00 | 0.00 | 0.00 | 95 | 1009.0 |
| 20260504003049 | 45 | 53 | 1.7 | 3.5 | 0.00 | 0.00 | 0.00 | 95 | 1009.3 |
| 20260504001615 | 45 | 134 | 0.9 | 2.6 | 0.00 | 0.00 | 0.00 | 95 | 1010.0 |